This demonstration page uses our WeatherBlox Daily Observations layout. Learn more.

Left ArrowRight Arrow

Hourly Observations for October 1, 2022

Temp ( °F °C ) Dew Point ( °F °C ) Humidity (%) Winds ( mph kmh ) Pressure ( in mb ) Visibility ( mi km ) Precip ( " mm )
12:15 am 00:15 Cloudy 52 11 52 11 100 100 N 10 17 30.05 1018 4 6 0.06 1.52
12:35 am 00:35 Cloudy 52 11 52 11 100 100 NNE 10 17 30.03 1017 7 11 0.09 2.29
12:55 am 00:55 Cloudy 52 11 52 11 100 100 N 10 17 30.03 1017 5 8 0.12 3.05
1:15 am 01:15 Cloudy 52 11 52 11 100 100 NNE 12 19 30.01 1016 10 16 0.00 0.00
1:35 am 01:35 Cloudy 52 11 52 11 100 100 NNE 9 15 30.03 1017 5 8 0.05 1.27
1:55 am 01:55 Cloudy 52 11 52 11 100 100 NNE 14 22 30.01 1016 3 5 0.13 3.30
2:15 am 02:15 Cloudy 52 11 52 11 100 100 NNE 13 20 30.00 1016 7 11 0.02 0.51
2:35 am 02:35 Cloudy 52 11 52 11 100 100 NNE 15 24 30.00 1016 7 11 0.03 0.76
2:55 am 02:55 Cloudy 52 11 52 11 100 100 NNE 14 22 29.98 1015 5 8 0.06 1.52
3:15 am 03:15 Cloudy 52 11 52 11 100 100 NNE 15 24 29.95 1014 5 8 0.05 1.27
3:35 am 03:35 Cloudy 52 11 52 11 100 100 NNE 15 24 29.95 1014 7 11 0.05 1.27
3:55 am 03:55 Cloudy 52 11 52 11 100 100 NNE 13 20 29.93 1014 4 6 0.10 2.54
4:15 am 04:15 Cloudy 52 11 52 11 100 100 NE 10 17 29.93 1014 4 6 0.05 1.27
4:35 am 04:35 Cloudy 52 11 52 11 100 100 NNE 10 17 29.93 1014 5 8 0.06 1.52
4:55 am 04:55 Cloudy 52 11 52 11 100 100 NE 9 15 29.95 1014 5 8 0.08 2.03
5:15 am 05:15 Cloudy 52 11 52 11 100 100 NNE 9 15 29.93 1014 7 11 0.00 0.00
5:35 am 05:35 Cloudy 52 11 52 11 100 100 NNE 10 17 29.93 1013 10 16 0.01 0.25
5:55 am 05:55 Cloudy 54 12 54 12 100 100 NNE 9 15 29.93 1014 7 11 0.01 0.25
6:15 am 06:15 Cloudy 54 12 54 12 100 100 NE 7 11 29.93 1014 7 11 0.00 0.00
6:35 am 06:35 Cloudy 54 12 54 12 100 100 NE 7 11 29.92 1013 10 16 0.00 0.00
6:55 am 06:55 Cloudy 54 12 54 12 100 100 NNE 8 13 29.92 1013 7 11 0.00 0.00
7:15 am 07:15 Cloudy 54 12 54 12 100 100 NNE 9 15 29.92 1013 4 6 0.00 0.00
7:35 am 07:35 Cloudy 54 12 54 12 100 100 NNE 8 13 29.92 1013 7 11 0.00 0.00
7:55 am 07:55 Cloudy 54 12 54 12 100 100 NNE 12 19 29.93 1014 7 11 0.00 0.00
8:15 am 08:15 Cloudy 54 12 54 12 100 100 NNE 10 17 29.93 1014 3 5 0.00 0.00
8:35 am 08:35 Cloudy 54 12 54 12 100 100 NNE 8 13 29.93 1014 4 6 0.00 0.00
8:55 am 08:55 Cloudy 54 12 54 12 100 100 NNE 6 9 29.93 1014 3 5 0.03 0.76
9:15 am 09:15 Cloudy 54 12 54 12 100 100 NE 8 13 29.93 1014 5 8 0.00 0.00
9:35 am 09:35 Cloudy 54 12 54 12 100 100 NE 7 11 29.92 1013 5 8 0.01 0.25
9:55 am 09:55 Cloudy 54 12 54 12 100 100 NE 5 7 29.92 1013 7 11 0.01 0.25
10:15 am 10:15 Cloudy 55 13 55 13 100 100 NNE 6 9 29.92 1013 10 16 0.00 0.00
10:35 am 10:35 Cloudy 55 13 55 13 100 100 NNE 7 11 29.92 1013 10 16 0.00 0.00
10:55 am 10:55 Cloudy 55 13 55 13 100 100 NNE 8 13 29.92 1013 3 5 0.00 0.00
11:15 am 11:15 Cloudy 55 13 55 13 100 100 NNE 8 13 29.92 1013 7 11 0.00 0.00
11:35 am 11:35 Cloudy 55 13 55 13 100 100 NNE 8 13 29.91 1013 4 6 0.01 0.25
11:55 am 11:55 Cloudy 55 13 55 13 100 100 NE 7 11 29.91 1013 5 8 0.01 0.25
12:15 pm 12:15 Cloudy 55 13 55 13 100 100 NE 8 13 29.91 1013 5 8 0.00 0.00
12:35 pm 12:35 Cloudy 55 13 55 13 100 100 NE 5 7 29.91 1013 3 5 0.00 0.00
12:55 pm 12:55 Cloudy 57 14 57 14 100 100 ENE 8 13 29.91 1013 5 8 0.00 0.00
1:15 pm 13:15 Cloudy 57 14 57 14 100 100 NE 9 15 29.90 1013 3 4 0.00 0.00
1:35 pm 13:35 Cloudy 57 14 57 14 100 100 NE 9 15 29.90 1013 3 4 0.01 0.25
1:55 pm 13:55 Cloudy 57 14 57 14 100 100 NE 6 9 29.89 1012 3 4 0.03 0.76
2:15 pm 14:15 Cloudy 57 14 57 14 100 100 NNE 6 9 29.88 1012 3 4 0.00 0.00
2:35 pm 14:35 Cloudy 57 14 57 14 100 100 NNE 8 13 29.88 1012 5 8 0.00 0.00
2:55 pm 14:55 Cloudy 57 14 57 14 100 100 NE 8 13 29.87 1012 4 6 0.00 0.00
3:15 pm 15:15 Cloudy 57 14 57 14 100 100 NE 10 17 29.86 1011 4 6 0.00 0.00
3:35 pm 15:35 Cloudy 59 15 59 15 100 100 NE 9 15 29.86 1011 4 6 0.00 0.00
3:55 pm 15:55 Cloudy 59 15 59 15 100 100 NE 7 11 29.86 1011 4 6 0.00 0.00
4:15 pm 16:15 Cloudy 59 15 59 15 100 100 NE 10 17 29.86 1011 4 6 0.00 0.00
4:35 pm 16:35 Cloudy 59 15 59 15 100 100 NE 9 15 29.86 1011 3 5 0.00 0.00
4:55 pm 16:55 Cloudy 59 15 59 15 100 100 NE 8 13 29.86 1011 3 4 0.00 0.00
5:15 pm 17:15 Cloudy 59 15 59 15 100 100 Calm 29.87 1011 2 3 0.00 0.00
5:35 pm 17:35 Cloudy 59 15 59 15 100 100 NE 7 11 29.87 1011 2 3 0.04 1.02
5:55 pm 17:55 Cloudy 59 15 59 15 100 100 NNE 6 9 29.86 1011 2 3 0.05 1.27
6:15 pm 18:15 Cloudy 59 15 59 15 100 100 NE 8 13 29.87 1011 2 2 0.04 1.02
6:35 pm 18:35 Cloudy 59 15 59 15 100 100 NE 9 15 29.86 1011 3 4 0.04 1.02
6:55 pm 18:55 Cloudy 59 15 59 15 100 100 NE 6 9 29.87 1011 4 6 0.07 1.78
7:15 pm 19:15 Cloudy 59 15 59 15 100 100 NNE 7 11 29.87 1011 4 6 0.02 0.51
7:35 pm 19:35 Cloudy 59 15 59 15 100 100 NNE 5 7 29.87 1011 3 5 0.03 0.76
7:55 pm 19:55 Cloudy 59 15 59 15 100 100 NNE 6 9 29.87 1011 4 6 0.04 1.02
8:15 pm 20:15 Cloudy 59 15 59 15 100 100 NE 6 9 29.88 1012 3 5 0.01 0.25
8:35 pm 20:35 Cloudy 59 15 59 15 100 100 NE 5 7 29.88 1012 4 6 0.02 0.51
8:55 pm 20:55 Cloudy 59 15 59 15 100 100 ENE 8 13 29.88 1012 7 11 0.02 0.51
9:15 pm 21:15 Cloudy 59 15 59 15 100 100 NE 7 11 29.88 1012 10 16 0.00 0.00
9:35 pm 21:35 Cloudy 59 15 59 15 100 100 NE 10 17 29.88 1012 10 16 0.00 0.00
9:55 pm 21:55 Cloudy 59 15 59 15 100 100 ENE 7 11 29.89 1012 10 16 0.00 0.00
10:15 pm 22:15 Cloudy 59 15 59 15 100 100 NE 5 7 29.89 1012 10 16 0.00 0.00
10:35 pm 22:35 Cloudy 59 15 59 15 100 100 ENE 6 9 29.89 1012 10 16 0.01 0.25
10:55 pm 22:55 Cloudy 59 15 59 15 100 100 ENE 3 6 29.90 1012 10 16 0.01 0.25
11:15 pm 23:15 Cloudy 59 15 59 15 100 100 ENE 6 9 29.90 1012 5 8 0.00 0.00
11:35 pm 23:35 Cloudy 59 15 59 15 100 100 ENE 6 9 29.90 1012 7 11 0.00 0.00
11:55 pm 23:55 Cloudy 59 15 59 15 100 100 E 5 7 29.90 1012 10 16 0.02 0.51

Powered by AerisWeather